Weather History for Crane Lake, MN

Change the Weather History Date:

Sunday, October 6, 2013

  Actual Average Record
Temperature  
Mean Temperature 40 °F -  
Max Temperature 51 °F 55 °F 80 °F (2011)
Min Temperature 30 °F 36 °F 23 °F (1999)
Degree Days  
Heating Degree Days 24    
Moisture  
Dew Point 41 °F    
Average Humidity 96    
Maximum Humidity 100    
Minimum Humidity 87    
Precipitation  
Precipitation 0.10 in - - ()
Sea Level Pressure  
Sea Level Pressure 29.79 in    
Wind  
Wind Speed 3 mph (NNW)    
Max Wind Speed 9 mph    
Max Gust Speed -    
Visibility 9 miles    
Events Rain    
Averages and records for this station are not official NWS values.
T = Trace of Precipitation, MM = Missing Value Source: NWS Daily Summary

Daily Weather History Graph

Daily Weather History Graph

Search for Another Location

Airport:

Trip Planner

Search our weather history database for the weather conditions in past years. The results will help you decide how hot, cold, wet, or windy it might be!

Date:

Astronomy

Oct. 06, 2013 Rise Set
Actual Time 7:16 AM CDT 6:38 PM CDT
Civil Twilight 6:45 AM CDT 7:09 PM CDT
Nautical Twilight 6:09 AM CDT 7:45 PM CDT
Astronomical Twilight 5:32 AM CDT 8:21 PM CDT
Moon 9:12 AM CDT (10/6) 7:25 PM CDT (10/6)
Length of Visible Light 12h 23m
Length of Day
11h 21m
Waxing Crescent, 3% of the Moon is Illuminated
Oct 6
Waxing Crescent
Oct 11
First Quarter
Oct 18
Full
Oct 26
Last Quarter
Nov 3
New

Hourly Weather History & Observations

Time (CDT) Temp. Windchill Dew Point Humidity Pressure Visibility Wind Dir Wind Speed Gust Speed Precip Events Conditions
12:13 AM 42.8 °F 41.1 °F 42.8 °F 100% 29.86 in 10.0 mi NNE 3.5 mph - N/A   Drizzle
12:33 AM 42.8 °F - 42.8 °F 100% 29.86 in 10.0 mi Calm Calm - N/A   Light Drizzle
12:53 AM 42.8 °F 41.1 °F 42.8 °F 100% 29.85 in 10.0 mi NNW 3.5 mph - N/A   Overcast
1:13 AM 42.8 °F 41.1 °F 41.0 °F 93% 29.86 in 10.0 mi North 3.5 mph - N/A Rain Light Rain
1:33 AM 42.8 °F - 41.0 °F 93% 29.86 in 10.0 mi Calm Calm - 0.01 in Rain Rain
1:53 AM 42.8 °F - 41.0 °F 93% 29.87 in 10.0 mi Calm Calm - 0.02 in Rain Rain
2:13 AM 42.8 °F 41.1 °F 41.0 °F 93% 29.86 in 10.0 mi NNE 3.5 mph - N/A Rain Rain
2:33 AM 42.8 °F 40.1 °F 41.0 °F 93% 29.84 in 10.0 mi North 4.6 mph - N/A Rain Rain
2:53 AM 42.8 °F 38.0 °F 41.0 °F 93% 29.81 in 10.0 mi North 8.1 mph - 0.01 in Rain Rain
3:13 AM 41.0 °F 35.8 °F 41.0 °F 100% 29.79 in 10.0 mi North 8.1 mph - 0.02 in Rain Light Rain
3:33 AM 41.0 °F 39.0 °F 39.2 °F 93% 29.80 in 10.0 mi North 3.5 mph - 0.03 in Rain Rain
3:53 AM 41.0 °F - 39.2 °F 93% 29.80 in 10.0 mi Calm Calm - 0.04 in Rain Light Rain
4:13 AM 41.0 °F 39.0 °F 39.2 °F 93% 29.80 in 10.0 mi North 3.5 mph - 0.01 in Rain Light Rain
4:33 AM 41.0 °F 37.1 °F 39.2 °F 93% 29.79 in 10.0 mi North 5.8 mph - 0.01 in Rain Light Rain
4:53 AM 41.0 °F 36.4 °F 41.0 °F 100% 29.78 in 10.0 mi North 6.9 mph - 0.02 in Rain Rain
5:13 AM 41.0 °F 36.4 °F 41.0 °F 100% 29.78 in 10.0 mi NNW 6.9 mph - N/A Rain Light Rain
5:33 AM 41.0 °F 37.1 °F 41.0 °F 100% 29.78 in 10.0 mi North 5.8 mph - N/A   Overcast
5:53 AM 41.0 °F - 41.0 °F 100% 29.80 in 10.0 mi Calm Calm - N/A   Overcast
6:13 AM 41.0 °F - 39.2 °F 93% 29.79 in 4.0 mi Calm Calm - N/A   Drizzle
6:33 AM 41.0 °F - 39.2 °F 93% 29.80 in 2.0 mi Calm Calm - N/A   Light Drizzle
6:53 AM 41.0 °F - 39.2 °F 93% 29.80 in 4.0 mi Calm Calm - N/A Rain Rain
7:13 AM 41.0 °F 39.0 °F 39.2 °F 93% 29.80 in 3.0 mi North 3.5 mph - 0.01 in   Drizzle
7:33 AM 41.0 °F 38.0 °F 39.2 °F 93% 29.80 in 2.5 mi North 4.6 mph - 0.01 in   Drizzle
7:53 AM 41.0 °F - 41.0 °F 100% 29.80 in 4.0 mi Calm Calm - 0.01 in   Light Drizzle
8:13 AM 41.0 °F - 39.2 °F 93% 29.80 in 7.0 mi Calm Calm - N/A   Overcast
8:33 AM 41.0 °F 39.0 °F 41.0 °F 100% 29.79 in 10.0 mi North 3.5 mph - N/A   Overcast
8:53 AM 42.8 °F 41.1 °F 41.0 °F 93% 29.78 in 10.0 mi North 3.5 mph - N/A   Overcast
9:13 AM 42.8 °F 41.1 °F 41.0 °F 93% 29.78 in 10.0 mi North 3.5 mph - N/A   Overcast
9:33 AM 42.8 °F 39.3 °F 42.8 °F 100% 29.79 in 10.0 mi NNW 5.8 mph - N/A   Overcast
9:53 AM 42.8 °F 38.6 °F 42.8 °F 100% 29.79 in 7.0 mi NNW 6.9 mph - N/A   Overcast
10:13 AM 42.8 °F 38.0 °F 42.8 °F 100% 29.78 in 10.0 mi NNW 8.1 mph - N/A   Overcast
10:33 AM 42.8 °F 40.1 °F 42.8 °F 100% 29.78 in 10.0 mi North 4.6 mph - N/A   Overcast
10:53 AM 44.6 °F 41.4 °F 42.8 °F 93% 29.78 in 10.0 mi NNW 5.8 mph - N/A   Overcast
11:13 AM 44.6 °F 41.4 °F 42.8 °F 93% 29.78 in 7.0 mi North 5.8 mph - N/A   Overcast
11:33 AM 44.6 °F 39.7 °F 44.6 °F 100% 29.78 in 10.0 mi NNW 9.2 mph - N/A   Overcast
11:53 AM 44.6 °F 39.7 °F 44.6 °F 100% 29.78 in 10.0 mi NNW 9.2 mph - N/A   Overcast
12:13 PM 44.6 °F 39.7 °F 44.6 °F 100% 29.78 in 10.0 mi NNW 9.2 mph - N/A   Overcast
12:33 PM 46.4 °F 42.9 °F 44.6 °F 93% 29.77 in 10.0 mi NNW 6.9 mph - N/A   Overcast
12:53 PM 46.4 °F 42.9 °F 44.6 °F 93% 29.77 in 10.0 mi NNW 6.9 mph - N/A   Overcast
1:13 PM 46.4 °F 42.9 °F 44.6 °F 93% 29.77 in 10.0 mi NNW 6.9 mph - N/A   Overcast
1:33 PM 46.4 °F 41.9 °F 44.6 °F 93% 29.78 in 10.0 mi NNW 9.2 mph - N/A   Overcast
1:53 PM 46.4 °F 43.5 °F 46.4 °F 100% 29.77 in 10.0 mi NNW 5.8 mph - N/A   Overcast
2:13 PM 46.4 °F 42.9 °F 46.4 °F 100% 29.77 in 10.0 mi NNW 6.9 mph - N/A   Overcast
2:33 PM 46.4 °F 43.5 °F 46.4 °F 100% 29.77 in 10.0 mi NNW 5.8 mph - N/A   Overcast
2:53 PM 46.4 °F 43.5 °F 46.4 °F 100% 29.76 in 10.0 mi NW 5.8 mph - N/A   Overcast
3:13 PM 46.4 °F 42.9 °F 46.4 °F 100% 29.77 in 10.0 mi NNW 6.9 mph - N/A   Overcast
3:33 PM 46.4 °F 42.9 °F 46.4 °F 100% 29.76 in 10.0 mi NNW 6.9 mph - N/A   Overcast
3:53 PM 46.4 °F 43.5 °F 46.4 °F 100% 29.76 in 10.0 mi NNW 5.8 mph - N/A   Overcast
4:13 PM 46.4 °F 43.5 °F 46.4 °F 100% 29.77 in 10.0 mi NNW 5.8 mph - N/A   Overcast
4:33 PM 48.2 °F - 46.4 °F 93% - 10.0 mi NW 4.6 mph - N/A   Overcast
4:53 PM 48.2 °F - 48.2 °F 100% 29.76 in 10.0 mi Calm Calm - N/A   Overcast
5:13 PM 48.2 °F - 48.2 °F 100% 29.77 in 10.0 mi NW 3.5 mph - N/A   Mostly Cloudy
5:33 PM 51.8 °F - 51.8 °F 100% 29.77 in 10.0 mi Calm Calm - N/A   Scattered Clouds
5:53 PM 51.8 °F - 50.0 °F 94% 29.77 in 10.0 mi Calm Calm - N/A   Clear
6:13 PM 48.2 °F - 44.6 °F 87% 29.77 in 10.0 mi Calm Calm - N/A   Clear
6:33 PM 42.8 °F - 41.0 °F 93% 29.77 in 10.0 mi Calm Calm - N/A   Clear
6:53 PM 41.0 °F - 39.2 °F 93% 29.77 in 10.0 mi Calm Calm - N/A   Clear
7:13 PM 39.2 °F - 37.4 °F 93% 29.77 in 10.0 mi Calm Calm - N/A   Clear
7:33 PM 37.4 °F - 35.6 °F 93% 29.77 in 10.0 mi Calm Calm - N/A   Clear
7:53 PM 35.6 °F - 35.6 °F 100% 29.78 in 10.0 mi Calm Calm - N/A   Clear
8:13 PM 35.6 °F - 33.8 °F 93% 29.77 in 10.0 mi Calm Calm - N/A   Clear
8:33 PM 33.8 °F - 33.8 °F 100% 29.77 in 7.0 mi Calm Calm - N/A   Clear
8:53 PM 33.8 °F - 33.8 °F 100% 29.77 in 10.0 mi Calm Calm - N/A   Clear
9:13 PM 33.8 °F - 32.0 °F 93% 29.77 in 10.0 mi Calm Calm - N/A   Clear
9:33 PM 33.8 °F - 32.0 °F 93% 29.77 in 10.0 mi Calm Calm - N/A   Clear
9:53 PM 32.0 °F - 30.2 °F 93% 29.77 in 10.0 mi Calm Calm - N/A   Clear
10:13 PM 32.0 °F - 30.2 °F 93% 29.77 in 10.0 mi Calm Calm - N/A   Clear
10:33 PM 32.0 °F - 30.2 °F 93% 29.77 in 10.0 mi Calm Calm - N/A   Clear
10:53 PM 30.2 °F - 30.2 °F 100% 29.77 in 10.0 mi Calm Calm - N/A   Clear
11:13 PM 30.2 °F - 30.2 °F 100% 29.77 in 10.0 mi Calm Calm - N/A   Clear
11:33 PM 30.2 °F - 28.4 °F 93% 29.76 in 10.0 mi Calm Calm - N/A   Clear
11:53 PM 30.2 °F - 28.4 °F 93% 29.76 in 10.0 mi Calm Calm - N/A   Clear